User: anonymous   Login
Location: Banff
(51.1667°N, 115.5667°W)
Time: 16:05:29
(UTC+00:00)
Language:

Altair - Orbit

View from above orbital plane
View from above orbital plane
View from above satellite
View from above satellite

Ground track
Ground track

The orbit data is extracted from the following two-line orbital elements,

1    50U 60009B   20328.77443120 -.00000034 +00000-0 +50053-3 0  9997
2    50 047.2329 346.7931 0112827 080.4709 280.8811 12.20113097689676
Epoch (UTC): 23 November 2020 18:35:10
Eccentricity: 0.0112827
inclination: 47.2329°
perigee height: 1502 km
apogee height: 1682 km
right ascension of ascending node: 346.7931°
argument of perigee: 80.4709°
revolutions per day: 12.20113097
mean anomaly at epoch: 280.8811°
orbit number at epoch: 68967

The dashed part of the orbit path shows where the satellite is in the earth's shadow,  

DLR